• In Deutschland
  • Länderverzeichnis
  • Für 7 Tage
  • Wassertemperatur
  • Satellitenkarten
  • Wetterkarte
  • Widgets
  • user-avatar
    Anmelden

    Stündliche Wetter Rustawi

    Heute, 20 Oktober, Samstag

    Zeit Temperatur Niederschläge Wind Luftdruck Luftfeuchtigkeit
    00:00 +15°C° 0 mm 1 m/S 728 mmHg 76%
    01:00 +15°C° 0 mm 1 m/S 728 mmHg 75%
    02:00 +15°C° 0 mm 1 m/S 728 mmHg 74%
    03:00 +15°C° 0 mm 1 m/S 728 mmHg 72%
    04:00 +15°C° 0 mm 1 m/S 728 mmHg 72%
    05:00 +15°C° 0 mm 1 m/S 728 mmHg 72%
    06:00 +15°C° 0 mm 1 m/S 728 mmHg 72%
    07:00 +16°C° 0 mm 1 m/S 728 mmHg 68%
    08:00 +19°C° 0 mm 1 m/S 728 mmHg 64%
    09:00 +20°C° 0 mm 1 m/S 728 mmHg 59%
    10:00 +22°C° 0 mm 1 m/S 727 mmHg 55%
    11:00 +23°C° 0 mm 1 m/S 727 mmHg 50%
    12:00 +24°C° 0 mm 1 m/S 727 mmHg 46%
    13:00 +25°C° 0 mm 1 m/S 726 mmHg 45%
    14:00 +25°C° 0 mm 1 m/S 726 mmHg 44%
    15:00 +25°C° 0 mm 1 m/S 726 mmHg 43%
    16:00 +24°C° 0 mm 1 m/S 726 mmHg 49%
    17:00 +22°C° 0 mm 1 m/S 726 mmHg 55%
    18:00 +18°C° 0 mm 0 m/S 726 mmHg 62%
    19:00 +18°C° 0 mm 0 m/S 726 mmHg 63%
    20:00 +19°C° 0 mm 1 m/S 726 mmHg 64%
    21:00 +19°C° 0 mm 1 m/S 726 mmHg 66%
    22:00 +18°C° 0 mm 1 m/S 726 mmHg 66%
    23:00 +18°C° 0 mm 1 m/S 726 mmHg 66%

    Morgen, 21 Oktober, Sonntag

    Zeit Temperatur Niederschläge Wind Luftdruck Luftfeuchtigkeit
    00:00 +18°C° 0 mm 1 m/S 726 mmHg 67%
    01:00 +16°C° 0 mm 1 m/S 726 mmHg 67%
    02:00 +16°C° 0 mm 1 m/S 726 mmHg 67%
    03:00 +16°C° 0 mm 1 m/S 726 mmHg 67%
    04:00 +16°C° 0 mm 1 m/S 726 mmHg 67%
    05:00 +15°C° 0 mm 1 m/S 726 mmHg 66%
    06:00 +15°C° 0 mm 1 m/S 726 mmHg 66%
    07:00 +18°C° 0 mm 1 m/S 726 mmHg 61%
    08:00 +20°C° 0 mm 1 m/S 726 mmHg 56%
    09:00 +21°C° 0 mm 1 m/S 727 mmHg 51%
    10:00 +23°C° 0 mm 1 m/S 726 mmHg 48%
    11:00 +24°C° 0 mm 1 m/S 726 mmHg 44%
    12:00 +25°C° 0 mm 1 m/S 726 mmHg 41%
    13:00 +25°C° 0 mm 2 m/S 726 mmHg 40%
    14:00 +25°C° 0 mm 2 m/S 725 mmHg 40%
    15:00 +26°C° 0 mm 2 m/S 725 mmHg 39%
    16:00 +24°C° 0 mm 1 m/S 725 mmHg 44%
    17:00 +22°C° 0 mm 1 m/S 725 mmHg 49%
    18:00 +20°C° 0 mm 1 m/S 726 mmHg 55%
    19:00 +20°C° 0 mm 1 m/S 726 mmHg 55%
    20:00 +20°C° 0 mm 1 m/S 726 mmHg 56%
    21:00 +19°C° 0 mm 1 m/S 726 mmHg 57%
    22:00 +19°C° 0 mm 1 m/S 726 mmHg 58%
    23:00 +18°C° 0 mm 1 m/S 727 mmHg 59%

    übermorgen, 22 Oktober, Montag

    Zeit Temperatur Niederschläge Wind Luftdruck Luftfeuchtigkeit
    00:00 +18°C° 0 mm 1 m/S 727 mmHg 59%
    01:00 +18°C° 0 mm 1 m/S 727 mmHg 60%
    02:00 +16°C° 0 mm 1 m/S 726 mmHg 60%
    03:00 +16°C° 0 mm 1 m/S 726 mmHg 61%
    04:00 +16°C° 0 mm 1 m/S 726 mmHg 62%
    05:00 +15°C° 0 mm 1 m/S 726 mmHg 62%
    06:00 +15°C° 0 mm 1 m/S 726 mmHg 62%
    07:00 +18°C° 0 mm 1 m/S 727 mmHg 57%
    08:00 +19°C° 0 mm 1 m/S 727 mmHg 51%
    09:00 +21°C° 0 mm 1 m/S 727 mmHg 45%
    10:00 +22°C° 0 mm 1 m/S 727 mmHg 42%
    11:00 +24°C° 0 mm 1 m/S 727 mmHg 39%
    12:00 +25°C° 0 mm 1 m/S 727 mmHg 36%
    13:00 +25°C° 0 mm 1 m/S 727 mmHg 36%
    14:00 +25°C° 0 mm 1 m/S 726 mmHg 36%
    15:00 +25°C° 0 mm 1 m/S 726 mmHg 36%
    16:00 +23°C° 0 mm 1 m/S 726 mmHg 41%
    17:00 +20°C° 0 mm 0 m/S 726 mmHg 46%
    18:00 +18°C° 0 mm 0 m/S 727 mmHg 51%
    19:00 +20°C° 0 mm 1 m/S 727 mmHg 52%
    20:00 +19°C° 0 mm 1 m/S 727 mmHg 54%
    21:00 +19°C° 0 mm 1 m/S 727 mmHg 55%
    22:00 +19°C° 0 mm 1 m/S 727 mmHg 56%
    23:00 +18°C° 0 mm 1 m/S 727 mmHg 56%

    23 Oktober, Dienstag

    Zeit Temperatur Niederschläge Wind Luftdruck Luftfeuchtigkeit
    00:00 +18°C° 0 mm 1 m/S 727 mmHg 57%
    01:00 +18°C° 0 mm 1 m/S 727 mmHg 58%
    02:00 +16°C° 0 mm 1 m/S 727 mmHg 59%
    03:00 +16°C° 0 mm 1 m/S 727 mmHg 60%
    04:00 +16°C° 0 mm 1 m/S 727 mmHg 61%
    05:00 +15°C° 0 mm 1 m/S 727 mmHg 61%
    06:00 +15°C° 0 mm 1 m/S 727 mmHg 62%
    07:00 +16°C° 0 mm 1 m/S 727 mmHg 57%
    08:00 +19°C° 0 mm 1 m/S 727 mmHg 52%
    09:00 +21°C° 0 mm 1 m/S 728 mmHg 47%
    10:00 +22°C° 0.1 mm 1 m/S 727 mmHg 44%
    11:00 +23°C° 0.1 mm 1 m/S 727 mmHg 41%
    12:00 +24°C° 0.1 mm 1 m/S 727 mmHg 39%
    13:00 +24°C° 0 mm 1 m/S 726 mmHg 39%
    14:00 +24°C° 0 mm 1 m/S 726 mmHg 39%
    15:00 +24°C° 0 mm 1 m/S 726 mmHg 39%
    16:00 +22°C° 0.1 mm 1 m/S 726 mmHg 45%
    17:00 +21°C° 0.1 mm 1 m/S 726 mmHg 50%
    18:00 +20°C° 0.1 mm 1 m/S 726 mmHg 56%
    19:00 +19°C° 0 mm 1 m/S 727 mmHg 59%
    20:00 +18°C° 0 mm 1 m/S 727 mmHg 61%
    21:00 +18°C° 0 mm 1 m/S 727 mmHg 63%
    22:00 +16°C° 0 mm 1 m/S 727 mmHg 64%
    23:00 +16°C° 0 mm 1 m/S 727 mmHg 65%

    24 Oktober, Mittwoch

    Zeit Temperatur Niederschläge Wind Luftdruck Luftfeuchtigkeit
    00:00 +16°C° 0 mm 1 m/S 726 mmHg 67%
    01:00 +15°C° 0 mm 1 m/S 726 mmHg 66%
    02:00 +15°C° 0 mm 1 m/S 726 mmHg 66%
    03:00 +15°C° 0 mm 2 m/S 726 mmHg 65%
    04:00 +15°C° 0 mm 2 m/S 726 mmHg 64%
    05:00 +15°C° 0 mm 2 m/S 726 mmHg 64%
    06:00 +14°C° 0 mm 1 m/S 725 mmHg 63%
    07:00 +16°C° 0 mm 1 m/S 725 mmHg 57%
    08:00 +19°C° 0 mm 1 m/S 725 mmHg 52%
    09:00 +21°C° 0 mm 1 m/S 725 mmHg 46%
    10:00 +22°C° 0 mm 1 m/S 724 mmHg 43%
    11:00 +23°C° 0 mm 2 m/S 724 mmHg 40%
    12:00 +25°C° 0 mm 2 m/S 723 mmHg 37%
    13:00 +25°C° 0 mm 2 m/S 723 mmHg 36%
    14:00 +25°C° 0 mm 2 m/S 723 mmHg 36%
    15:00 +25°C° 0 mm 3 m/S 722 mmHg 35%
    16:00 +24°C° 0 mm 2 m/S 722 mmHg 39%
    17:00 +21°C° 0 mm 2 m/S 722 mmHg 42%
    18:00 +19°C° 0 mm 2 m/S 722 mmHg 46%
    19:00 +20°C° 0 mm 1 m/S 722 mmHg 47%
    20:00 +19°C° 0 mm 1 m/S 722 mmHg 48%
    21:00 +19°C° 0 mm 1 m/S 722 mmHg 49%
    22:00 +19°C° 0 mm 1 m/S 721 mmHg 50%
    23:00 +18°C° 0 mm 1 m/S 721 mmHg 51%

    25 Oktober, Donnerstag

    Zeit Temperatur Niederschläge Wind Luftdruck Luftfeuchtigkeit
    00:00 +18°C° 0 mm 1 m/S 721 mmHg 52%
    01:00 +18°C° 0 mm 1 m/S 720 mmHg 54%
    02:00 +16°C° 0 mm 1 m/S 720 mmHg 56%
    03:00 +16°C° 0 mm 1 m/S 720 mmHg 58%
    04:00 +16°C° 0 mm 1 m/S 720 mmHg 59%
    05:00 +15°C° 0 mm 1 m/S 719 mmHg 60%
    06:00 +15°C° 0 mm 1 m/S 719 mmHg 61%
    07:00 +16°C° 0.3 mm 2 m/S 719 mmHg 59%
    08:00 +17°C° 0.3 mm 2 m/S 719 mmHg 57%
    09:00 +19°C° 0.3 mm 2 m/S 719 mmHg 54%
    10:00 +20°C° 0 mm 2 m/S 719 mmHg 49%
    11:00 +23°C° 0 mm 2 m/S 718 mmHg 44%
    12:00 +24°C° 0 mm 2 m/S 718 mmHg 38%
    13:00 +24°C° 0 mm 2 m/S 717 mmHg 37%
    14:00 +25°C° 0 mm 2 m/S 717 mmHg 37%
    15:00 +25°C° 0 mm 2 m/S 717 mmHg 36%
    16:00 +23°C° 0 mm 2 m/S 717 mmHg 41%
    17:00 +21°C° 0 mm 2 m/S 717 mmHg 45%
    18:00 +20°C° 0 mm 1 m/S 717 mmHg 50%
    19:00 +20°C° 0.1 mm 1 m/S 717 mmHg 51%
    20:00 +20°C° 0.1 mm 1 m/S 717 mmHg 52%
    21:00 +19°C° 0.1 mm 1 m/S 717 mmHg 54%
    22:00 +19°C° 0.2 mm 1 m/S 717 mmHg 56%
    23:00 +17°C° 0.2 mm 2 m/S 717 mmHg 58%
    Mehr zeigen